Regional Weather Roundup
Issued by NWS

Home | Current Version | Previous Version | Text Only | Print | Product List | Glossary Off
Versions: 1 2 3 4 5 6 7 8 9 10 11 12 13 14 15 16 17 18 19 20 21 22 23 24 25 26 27 28 29 30 31 32 33 34 35 36 37 38 39 40 41 42 43 44 45 46 47 48 49 50

118
ASUS43 KMKX 170421
RWRWI

WISCONSIN REGIONAL WEATHER ROUNDUP
NATIONAL WEATHER SERVICE MILWAUKEE/SULLIVAN WI
1100 PM CDT WED AUG 16 2017

NOTE: "FAIR" INDICATES FEW OR NO CLOUDS BELOW 12,000 FEET WITH NO
SIGNIFICANT WEATHER AND/OR OBSTRUCTIONS TO VISIBILITY.

WIZ001-002-006>008-014>016-023>028-170500-
NORTHWEST WISCONSIN

CITY           SKY/WX    TMP DP  RH WIND       PRES   REMARKS
SUPERIOR ARPT  DRIZZLE   63  61  94 NE13G24   29.79F
ASHLAND        CLOUDY    66  62  87 NE7       29.80F
HAYWARD        LGT RAIN  69  62  78 E9        29.77F
SIREN          HVY RAIN  67  65  94 E9        29.71F
CUMBERLAND     RAIN      64  63  94 E10G20    29.72F
RICE LAKE      RAIN      67  65  94 E13G18    29.73F
CHETEK         HVY RAIN  67  66  97 E12G20    29.72F
LADYSMITH      LGT RAIN  67  64  87 E12       29.78F
EAU CLAIRE     LGT RAIN  69  67  93 E18G29    29.65F
MENOMONIE      RAIN      68  68  99 E12G17    29.67S
NEW RICHMOND   LGT RAIN  67  67  98 E14G22    29.64F
OSCEOLA        LGT RAIN  68  68 100 E15G23    29.66F
$$

WIZ003>005-009-010-017-018-170500-
NORTH CENTRAL WISCONSIN

CITY           SKY/WX    TMP DP  RH WIND       PRES   REMARKS
MANITOWISH WTR CLOUDY    65  60  81 E6        29.85F
ARBOR VITAE    CLOUDY    66  58  77 SE8       29.85F
WOODRUFF       CLOUDY    66  58  77 SE8       29.85F
RHINELANDER    MOCLDY    64  61  90 E10       29.87F
EAGLE RIVER    CLOUDY    64  55  73 SE8       29.87F
LAND O LAKES   CLOUDY    64  55  75 SE6       29.89F
PHILLIPS       LGT RAIN  65  62  88 E10       29.81F
TOMAHAWK         N/A     65  58  79 E7        29.84F
MEDFORD        RAIN      64  63  94 E8        29.81F
MERRILL        CLOUDY    66  63  88 E8        29.83F
$$

WIZ029-030-035-036-043>047-170500-
CENTRAL WISCONSIN

CITY           SKY/WX    TMP DP  RH WIND       PRES   REMARKS
WAUSAU         CLOUDY    66  61  84 E14       29.81F
MOSINEE        LGT RAIN  64  63  94 E10       29.83F
MARSHFIELD     RAIN      67  63  87 E10G21    29.78F FOG
STEVENS POINT  RAIN      65  64  98 E12       29.83F
WAUPACA        RAIN      68  66  93 E7        29.82F
WAUTOMA        HVY RAIN  66  64  94 E6        29.79F FOG
WISC RAPIDS    RAIN      67  65  93 E10       29.80F FOG
CAMP DOUGLAS   CLOUDY    70  70 100 E10       29.75F
$$

WIZ011>013-019>022-031-037>040-048>050-170500-
NORTHEAST WISCONSIN

CITY           SKY/WX    TMP DP  RH WIND       PRES   REMARKS
ANTIGO         CLOUDY    64  60  88 E12       29.87F
SHAWANO        CLOUDY    68  63  84 E8        29.84F
OCONTO         CLOUDY    68  64  86 E6        29.86F
STURGEON BAY   CLOUDY    68  65  90 E8        29.87F
GREEN BAY      CLOUDY    68  65  90 E6        29.85F
MANITOWOC      CLOUDY    68  65  90 CALM      29.86F
APPLETON       LGT RAIN  66  61  82 E7        29.83F
CLINTONVILLE   CLOUDY    64  63  94 E5        29.83F
OSHKOSH        LGT RAIN  68  66  93 E12       29.80F FOG
$$

WIZ032>034-041-042-053>061-170500-
SOUTHWEST WISCONSIN

CITY           SKY/WX    TMP DP  RH WIND       PRES   REMARKS
LA CROSSE      CLOUDY    77  73  87 SE9       29.66F
SPARTA         CLOUDY    69  68  97 SE6       29.72F
VIROQUA        CLOUDY    72  72 100 SE12      29.73F
BOSCOBEL       CLOUDY    76  72  87 CALM      29.72F
PRAIRIE DU CHI MOCLDY    75  71  87 SE6       29.70F
PLATTEVILLE    PTCLDY    74  74 100 S10       29.76F
$$

WIZ056-057-062-063-064-067-068-170500-
SOUTH CENTRAL WISCONSIN

CITY           SKY/WX    TMP DP  RH WIND       PRES   REMARKS
REEDSBURG      CLOUDY    71  71 100 E5        29.76F
BARABOO/DELLS  CLOUDY    70  68  93 SE12G17   29.77F
LONE ROCK      CLOUDY    72  72 100 E7        29.74F
MINERAL POINT  PTCLDY    73  73 100 S8        29.76F FOG
MADISON        LGT RAIN  72  71  97 E5        29.78F
MIDDLETON      CLOUDY    73  73 100 SE6       29.79F
WATERTOWN      HVY RAIN  70  70 100 E10       29.80F
MONROE         CLOUDY    73  72  94 S13       29.78F
JANESVILLE     CLOUDY    73  73 100 S6        29.79S
$$

WIZ051-052-058>065-066-070>072-170500-
SOUTHEAST WISCONSIN

CITY           SKY/WX    TMP DP  RH WIND       PRES   REMARKS
MILWAUKEE      CLOUDY    73  71  93 SE7       29.82F
WAUKESHA       LGT RAIN  68  68 100 E7        29.83F
MILWAUKEE/TIMM RAIN      70  66  88 E5        29.84F
RACINE         MOCLDY    73  72  96 SE5       29.84F
KENOSHA        CLOUDY    76  72  87 SE10      29.83F
FOND DU LAC    LGT RAIN  68  65  90 SE8       29.82F
SHEBOYGAN      RAIN      68  68 100 NE6       29.85F FOG
WEST BEND      RAIN      68  68 100 SE6       29.83F
JUNEAU         RAIN      69  68  97 E10       29.82F
$$

LSZ147-162-170500-
LAKE SUPERIOR

STATION/POSITION TIME  TEMP    WIND        PRES    WAVE
                       AIR SEA DIR/SP/G            HT/PER
                 (UTC) (F)     (DEG/KT/KT) (MB)    (FT/S)
W MID LAKE BUOY  0350   62 60   80/ 16/ 17 1011.0F   2/ 4
DEVILS ISLAND    0400   63      70/ 20/ 23 1009.9F
SAXON HARBOR     0340   65      CALM  /  3 1009.1F
$$

LMZ867-665-643>646-170500-
LAKE MICHIGAN

STATION/POSITION TIME  TEMP    WIND        PRES    WAVE
                       AIR SEA DIR/SP/G            HT/PER
                 (UTC) (F)     (DEG/KT/KT) (MB)    (FT/S)
S GREEN BAY BUOY 0400   69 72  100/ 12/ 14 1011.0
N MID LAKE BUOY  0350   69 68  120/  8/ 10 1012.9F   1/ 3
NORTHPORT PIER   0340   69      90/  7/  8 1012.2F
KEWAUNEE LAKESHO 0400   69      40/  3/  5 1010.6
SHEBOYGAN LAKESH 0400   70     100/  9/ 10 1010.6F
PORT WASHINGTON  0330   72     100/  7/ 10 1011.5F
ATWATER BUOY     0309   72 72  130/ 12/ 14 1011.0F
MILWAUKEE LAKESH 0400   72     100/ 11/ 12   N/A
S MID LAKE BUOY  0350   75 72  120/ 17/ 19 1010.4F   1/ 3
KENOSHA   LAKESH 0400   74     180/  8/ 11 1009.8
$$

TC  - TEMPERATURE IN CELSIUS
VSB - VISIBILITY IN STATUTE MILES
WCI - WIND CHILL INDEX
HX  - HEAT INDEX





USA.gov is the U.S. government's official web portal to all federal, state and local government web resources and services.